Regional Weather Roundup
Issued by NWS Cleveland, OH

Home | Current Version | Previous Version | Graphics & Text | Print | Product List | Glossary On
Versions: 1 2 3 4 5 6 7 8 9 10 11 12 13 14 15 16 17 18 19 20 21 22 23 24 25 26 27 28 29 30 31 32 33 34 35 36 37 38 39 40 41 42 43 44 45 46 47 48 49 50
000
ASUS41 KCLE 272110
RWRCLE
OHIO REGIONAL WEATHER ROUNDUP
NATIONAL WEATHER SERVICE WILMINGTON, OH
500 PM EDT MON APR 27 2015

NOTE: "FAIR" INDICATES FEW OR NO CLOUDS BELOW 12,000 FEET WITH NO
SIGNIFICANT WEATHER AND/OR OBSTRUCTIONS TO VISIBILITY.

OHZ001>008-015>018-024>027-034-035-043-044-272200-
   NORTHWEST OHIO

CITY           SKY/WX    TMP DP  RH WIND       PRES   REMARKS
DEFIANCE       CLOUDY    50  35  56 N12       30.05R
FINDLAY        CLOUDY    50  36  58 N8        30.02R
TOLEDO EXPRESS CLOUDY    49  34  56 N12       30.04R
TOLEDO EXEC    CLOUDY    49  34  56 NW10      30.04R
LIMA           CLOUDY    49  37  63 N13       30.02R
$$

OHZ009>014-019>023-028>033-038-089-272200-
   NORTHEAST OHIO

CITY           SKY/WX    TMP DP  RH WIND       PRES   REMARKS
CLE-HOPKINS    CLOUDY    44  35  70 NW18      30.03R
CLE-LAKEFRONT  CLOUDY    44  37  76 NW14      30.00R
CUY CO. ARPT   CLOUDY    45  39  81 NW14      30.00R
LORAIN-ELYRIA  CLOUDY    45  36  70 N16       30.01S
ASHTABULA      CLOUDY    43  36  76 NW12      29.97R
AKRON-CANTON   CLOUDY    44  33  65 NW14      29.97S
WOOSTER        CLOUDY    44  35  70 N13       30.00R
MANSFIELD      CLOUDY    44  34  67 N14       30.00R
YOUNGSTOWN     LGT RAIN  43  33  68 NW12      29.95R
$$

OHZ042-051>053-060>062-070>072-077>081-272200-
  SOUTHWEST OHIO

CITY           SKY/WX    TMP DP  RH WIND       PRES   REMARKS
CINC-COVINGTON PTSUNNY   60  37  42 N15       29.96R
CINC-LUNKEN    CLOUDY    60  40  47 N13       29.97R
HAMILTON       CLOUDY    59  39  47 NW13      29.99R
DAYTON         CLOUDY    55  37  50 N14G20    30.01R
WRIGHT-PAT AFB CLOUDY    55  36  50 N13G18    29.99R
DAYTON GENERAL CLOUDY    56  37  49 N14       29.98R
WILMINGTON     CLOUDY    56  36  47 N10       29.97R
$$

OHZ036-037-039>041-045>050-054>059-063>069-073>076-082>088-272200-
  CENTRAL AND SOUTHEAST OHIO

CITY           SKY/WX    TMP DP  RH WIND       PRES   REMARKS
COLUMBUS       CLOUDY    50  37  61 N16G22    29.99R
OSU AIRPORT    CLOUDY    49  37  63 NE14G21   30.00R
BOLTON FIELD   CLOUDY    52  37  58 N14       29.99R
RICKENBACK AFB CLOUDY    52  35  54 N12G17    29.98R
NEWARK         CLOUDY    50  37  61 N13       29.98R
MARION         CLOUDY    47  37  68 N10       30.02R
LANCASTER      CLOUDY    52  37  56 N9        29.99R
ZANESVILLE     CLOUDY    49  35  58 NW14      29.97R
NEW PHILLY     CLOUDY    47  34  60 N12       29.99R
$$


USA.gov is the U.S. government's official web portal to all federal, state and local government web resources and services.